#timestamp,LO_Frequency,Hit,StdDev 
1661904015.6,286047000.2,N
1661904035.4,286046999.8,N
1661904055.3,286047000.6,N
1661904075.1,286046998.1,N
1661904095.9,286046998.1,N
1661904115.7,286047002.7,N
1661904135.5,286047000.2,N
1661904155.4,286047000.3,N
1661904175.2,286046999.9,N
1661904195.0,286047002.7,N
1661904195.9,286047002.7,N
1661904215.8,286046999.8,N
1661904235.6,286047000.3,N
1661904255.5,286047000.6,N
1661904275.3,286047000.4,N
1661904295.1,286047000.5,N
1661904315.9,286047000.6,N
1661904335.7,286046999.9,N
1661904355.5,286047002.6,N
1661904375.4,286047002.5,N
1661904395.2,286047002.3,N
1661904415.1,286047001.9,N
1661904416.0,286047001.9,N
1661904435.8,286047001.8,N
1661904455.6,286047001.8,N
1661904475.5,286047001.4,N
1661904495.3,286047001.6,N
1661904515.1,286047001.8,N
1661904535.9,286047004.4,Y
1661904555.7,286047002.1,P
1661904575.6,286047002.0,P
1661904595.4,286047000.1,N
1661904615.2,286047000.0,N
1661904635.1,286047002.7,N
1661904636.0,286047002.7,N
1661904655.8,286047001.8,N
1661904675.6,286047001.8,N
1661904695.5,286047004.2,Y
1661904715.3,286046999.8,P
1661904735.2,286047000.8,N
1661904755.0,286047000.3,N
1661904755.9,286047000.3,N
1661904775.8,286046998.1,Y
1661904795.6,286047000.7,P
1661904815.4,286047000.9,P
1661904835.3,286047001.1,P
1661904855.1,286047001.2,Y
1661904875.8,286046998.8,P
1661904895.7,286046998.8,N
1661904915.5,286046999.0,N
1661904935.4,286046998.7,N
1661904955.2,286046998.9,N
1661904975.0,286046998.4,N
1661904975.9,286046998.4,N
1661904995.8,286046996.5,Y
1661905015.6,286046997.0,P
1661905035.4,286046996.5,P
1661905055.3,286046997.3,N
1661905075.1,286046997.0,Y
1661905095.9,286047002.4,P
1661905115.7,286047002.8,N
1661905135.5,286047002.0,N
1661905155.4,286047001.5,N
1661905175.2,286047001.3,N
1661905195.1,286047001.3,N
1661905196.0,286047001.3,N
1661905215.8,286047002.0,N
1661905235.6,286047000.0,N
1661905255.5,286047000.4,N
1661905275.3,286047002.6,N
1661905295.1,286047002.8,N
1661905315.9,286047002.4,N
1661905335.7,286047002.5,N
1661905355.6,286047001.8,N
1661905375.4,286047001.4,N
1661905395.2,286047002.5,N
1661905415.1,286047001.3,N
1661905416.0,286047001.3,N
1661905435.8,286047001.9,N
1661905455.6,286047001.4,N
1661905475.5,286047002.2,N
1661905495.3,286046999.7,N
1661905515.2,286047002.8,N
1661905535.9,286047000.6,N
1661905555.7,286047000.2,N
1661905575.6,286047000.1,N
1661905595.4,286047002.6,N
1661905615.2,286047002.1,N
1661905635.1,286047002.1,N
1661905636.0,286047002.1,N
1661905655.8,286047001.8,N
1661905675.7,286047002.0,N
1661905695.5,286047004.0,Y
1661905715.3,286047002.3,P
1661905735.2,286047001.6,P
1661905755.0,286047001.9,P
1661905755.9,286047001.9,Y
1661905775.8,286047001.2,P
1661905795.6,286046998.4,P
1661905815.4,286046996.6,N
1661905835.3,286046996.5,N
1661905855.1,286046996.6,N
1661905875.8,286047001.2,N
1661905895.7,286046998.8,N
1661905915.5,286046998.8,N
1661905935.4,286046996.9,N
1661905955.2,286046996.6,N
1661905975.0,286046996.7,N
1661905975.9,286046996.7,N
1661905995.8,286046999.4,N
1661906015.6,286046997.1,N
1661906035.5,286046996.8,N
1661906055.3,286046997.8,N
1661906075.1,286046997.4,N
1661906095.9,286046996.7,N
1661906115.7,286046997.9,N
1661906135.5,286046999.6,N
1661906155.4,286046999.3,N
1661906175.2,286046998.3,N
1661906195.1,286046999.4,N
1661906196.0,286046999.4,N
1661906215.8,286046998.5,N
1661906235.6,286047001.1,N
1661906255.5,286047001.1,N
1661906275.3,286047001.0,N
1661906295.1,286047000.6,N
1661906315.9,286047000.8,N
1661906335.7,286047000.7,N
1661906355.6,286046999.6,N
1661906375.4,286046997.9,N
1661906395.2,286046995.1,Y
1661906415.1,286046996.7,P
1661906416.0,286046996.7,P
1661906435.8,286046999.5,N
1661906455.7,286046997.9,N
1661906475.5,286046995.0,Y
1661906495.3,286046998.4,P
1661906515.2,286046999.4,N
1661906535.0,286046998.3,N
1661906535.9,286046998.3,Y
1661906555.8,286047000.2,P
1661906575.6,286046999.8,N
1661906595.4,286047000.2,N
1661906615.3,286047000.3,N
1661906635.1,286047002.6,Y
1661906655.9,286047001.6,P
1661906675.7,286047002.6,N
1661906695.5,286047004.0,P
1661906715.4,286047001.3,N
1661906735.2,286047001.4,N
1661906755.0,286047001.7,N
1661906755.9,286047001.7,N
1661906775.8,286047002.5,N
1661906795.6,286047002.0,N
1661906815.5,286047002.5,N
1661906835.3,286047001.5,N
1661906855.1,286047001.6,N
1661906875.9,286047003.2,Y
1661906895.7,286047002.8,P
1661906915.5,286047002.5,P
1661906935.4,286047004.4,P
1661906955.2,286047001.9,N
1661906975.1,286047001.6,N
1661906976.0,286047001.6,N
1661906995.8,286047002.2,N
1661907015.6,286047003.8,Y
1661907035.5,286047000.5,P
1661907055.3,286046998.6,N
1661907075.1,286046999.4,N
1661907095.9,286046999.2,N
1661907115.7,286046999.6,N
1661907135.6,286046999.6,N
1661907155.4,286046998.9,N
1661907175.2,286046999.2,N
1661907195.1,286046999.5,N
1661907196.0,286046999.5,N
1661907215.8,286046999.6,N
1661907235.7,286046997.4,N
1661907255.5,286046995.3,Y
1661907275.3,286046997.7,P
1661907295.2,286046995.0,P
1661907315.0,286046999.6,N
1661907315.9,286046999.6,N
1661907335.7,286046996.5,N
1661907355.6,286046999.3,N
1661907375.4,286046998.1,N
1661907395.3,286046998.8,N
1661907415.1,286046999.1,N
1661907416.0,286046999.1,N
1661907435.8,286046996.6,N
1661907455.7,286046999.6,N
1661907475.5,286046998.9,N
1661907495.4,286046998.9,N
1661907515.2,286046999.2,N
1661907535.0,286046996.9,N
1661907535.9,286046996.9,N
1661907555.8,286046994.9,Y
1661907575.6,286046996.5,P
1661907595.4,286046998.9,N
